AURA

Last updated on Wed Nov 05 2025 00:02:29 GMT+0000 (Coordinated Universal Time)

1 28376U 04026A 25308.63949556 .00001268 00000+0 26941-3 0 9994 2 28376 98.3120 258.7053 0001154 67.4158 292.7165 14.60804365133425
UTC large
Height (km)
Speed (km/s)
/
Latitude / Longitude
Inclination (degrees)
Orbital Period (minutes)
Azimuth
Elevation
Range (km)
Doppler Factor

Next 0 passes for location: London (51.5072 / 0.1276)

Sorry there are no passes over London.